Regional Weather Roundup
Issued by NWS

Home | Current Version | Previous Version | Text Only | Print | Product List | Glossary On
Versions: 1 2 3 4 5 6 7 8 9 10 11 12 13 14 15 16 17 18 19 20 21 22 23 24 25 26 27 28 29 30 31 32 33 34 35 36 37 38 39 40 41 42 43 44 45 46 47 48 49 50
852
ASUS43 KIND 171409
RWRIN

WEATHER ROUNDUP FOR INDIANA
NATIONAL WEATHER SERVICE INDIANAPOLIS IN
1000 AM EDT THU AUG 17 2017

NOTE: "FAIR" INDICATES FEW OR NO CLOUDS BELOW 12,000 FEET WITH NO
SIGNIFICANT WEATHER AND/OR OBSTRUCTIONS TO VISIBILITY.

* - STATION DOES NOT REPORT WEATHER SUCH AS PRECIPITATION OR FOG.

+ - STATION NOT QUALITY CONTROLLED BY THE NATIONAL WEATHER SERVICE.
    USE DATA WITH CAUTION...ESPECIALLY DEWPOINT AND RELATIVE
    HUMIDITY OBSERVATIONS.

INZ001>003-010>013-019-020-171500-
NORTHWEST INDIANA

CITY           SKY/WX    TMP DP  RH WIND       PRES   REMARKS
GARY /AIRPORT/ LGT RAIN  73  70  88 S10       29.81S
KNOX *+        CLOUDY    72  70  94 SW9G16    29.82F
LA PORTE +     RAIN      72  70  92 S8        29.83F
MICHIGAN CITY+ LGT RAIN  72  72 100 S8        29.82F
MONTICELLO +   CLOUDY    76  72  86 SW12      29.82F
RENSSELAER +   CLOUDY    73  68  83 S13       29.83F
VALPARAISO     CLOUDY    73  72  96 SW10      29.82F

$$

LMZ046-743>745-171500-
SOUTHERN LAKE MICHIGAN

STATION/POSITION TIME  TEMP    WIND        PRES    WAVE
                       AIR SEA DIR/SP/G            HT
                 (UTC) (F)     (DEG/KT/KT) (MB)    (FT)
BURNS HARBOR     1340   72     190/ 11/ 16 1009.5F
MICHIGAN CITY    1340   72     180/ 10/ 13   N/A
5NW MICH CITY    1400   73 74  200/ 12/ 16   N/A     2

$$

INZ004-005-014>016-021>024-171500-
NORTH CENTRAL INDIANA

CITY           SKY/WX    TMP DP  RH WIND       PRES   REMARKS
ELKHART        CLOUDY    75  70  83 S8        29.83F
GOSHEN         LGT RAIN  74  70  87 S7        29.85S
LOGANSPORT +   RAIN      73  72  94 W9        29.85F
PERU/GRISSOM   DRIZZLE   77  77 100 S14       29.84F
ROCHESTER +    LGT RAIN  75  73  94 SW10      29.85F
SOUTH BEND     CLOUDY    74  71  91 SW10      29.83F
WARSAW +       HVY RAIN  73  72  94 SW3       29.85F

$$

INZ006>009-017-018-025>027-171500-
NORTHEAST INDIANA

CITY           SKY/WX    TMP DP  RH WIND       PRES   REMARKS
AUBURN +       MOSUNNY   77  72  83 S5        29.87F
FORT WAYNE     CLOUDY    77  73  87 S12       29.87F
HUNTINGTON +   CLOUDY    76  74  95 S8        29.86F
KENDALLVILLE + CLOUDY    76  73  88 SW10      29.87F

$$

INZ028-029-035-036-043>045-051>053-171500-
WEST CENTRAL INDIANA

CITY           SKY/WX    TMP DP  RH WIND       PRES   REMARKS
GREENCASTLE +  CLOUDY    75  73  94 S6        29.88F FOG
LAFAYETTE      CLOUDY    73  73 100 W7        29.84F
TERRE HAUTE    LGT RAIN  75  71  87 W8        29.88S

$$

INZ030>032-037>040-046>048-054>057-064-065-171500-
CENTRAL INDIANA

CITY           SKY/WX    TMP DP  RH WIND       PRES   REMARKS
CP ATTERBURY + MOSUNNY   81  73  78 SW10      29.91F
COLUMBUS       PTSUNNY   79  73  83 SW12      29.92F
FRANKFORT +    HVY RAIN  79  76  90 SW7G16    29.87F
GREENWOOD *+   CLOUDY    79  73  81 S7G16     29.90F
INDIANAPOLIS   CLOUDY    80  75  84 S16G24    29.87F
-EAGLE CREEK   CLOUDY    79  73  82 S10G18    29.87F
KOKOMO +       CLOUDY    77  74  90 S12G20    29.86F
MARION +       CLOUDY    75  73  94 S12       29.89S FOG
MT COMFORT *+  CLOUDY    77  73  88 S7        29.91F
SHELBYVILLE    CLOUDY    80  73  79 S12       29.90F
ZIONSVILLE +   CLOUDY    78  74  88 S15       29.88F

$$

INZ033-034-041-042-049-050-058-059-171500-
EAST CENTRAL INDIANA

CITY           SKY/WX    TMP DP  RH WIND       PRES   REMARKS
MUNCIE         CLOUDY    79  73  82 SW12      29.89F
RICHMOND +     CLOUDY    77  73  88 SW10G17   29.96S FOG

$$

INZ060-061-067>069-081>083-085>088-171500-
SOUTHWEST INDIANA

CITY           SKY/WX    TMP DP  RH WIND       PRES   REMARKS
EVANSVILLE     CLOUDY    81  74  79 SW15      29.92S
HUNTINGBURG +  MOSUNNY   81  75  83 SW15      29.92F
WASHINGTON +   CLOUDY    80  74  82 MISG      29.90S

$$

INZ062-063-066-070>080-084-089>092-171500-
SOUTH CENTRAL AND SOUTHEAST INDIANA

CITY           SKY/WX    TMP DP  RH WIND       PRES   REMARKS
BEDFORD +      PTSUNNY   81  73  78 S14       29.91F
BLOOMINGTON    CLOUDY    80  73  79 S14G21    29.90F
MADISON *+     PTSUNNY   79  73  83 SW13      29.98F
NORTH VERNON + PTSUNNY   77  73  88 S9        29.95F
SEYMOUR +      SUNNY     82  75  78 SW12      29.92F

$$





USA.gov is the U.S. government's official web portal to all federal, state and local government web resources and services.